Header for Extended Forecast Station List Page

Search by: ID | Name | Date | Parm | Value | Avg | % Avg
Sort by: ID | Name | Date | Parm | Value | Avg | % Avg

Enter search or view all records.

Click on id for station plot
#IDNameDateParmValueAvg% Avg
0ABOM8CLARK FORK-ABOVE MISSOULA08-13-2018DISCHARGE (KAF)447369121
1AFRI1SNAKE-AMERICAN FALLS RESERVOIR08-13-2018INFLOW (KAF)18851291146
2ALFW1PEND OREILLE-ALBENI FALLS DAM08-13-2018INFLOW (KAF)2710348978
3ALPW4SNAKE-NEAR ALPINE08-13-2018DISCHARGE (KAF)819706116
4ANAW1SNAKE-NEAR ANATONE08-13-2018DISCHARGE (KAF)4375482291
5ANTI1HENRYS FORK-AT ST. ANTHONY08-13-2018DISCHARGE (KAF)476323147
6ARAI1SF BOISE-ANDERSON RANCH DAM08-13-2018INFLOW (KAF)686899
7ARDW1ENTIAT-NEAR ARDENVOIR08-13-2018DISCHARGE (KAF)202582
8BELM8CLARK FORK-BELOW MISSOULA08-13-2018DISCHARGE (KAF)646603107
9BERO3MALHEUR-AGENCY VALLEY DAM08-13-2018INFLOW (KAF)8985
10BFEI1KOOTENAI-AT BONNERS FERRY08-13-2018STAGE (FT)MMM
11BFTI1SNAKE-NEAR BLACKFOOT08-13-2018DISCHARGE (KAF)1248628199
12BIGI1BOISE-AT GLENWOOD BRIDGE08-13-2018DISCHARGE (KAF)108102106
13BITM8BITTERROOT-NEAR MISSOULA08-13-2018DISCHARGE (KAF)19322785
14BONM8BLACKFOOT-NEAR BONNER08-13-2018DISCHARGE (KAF)179158113
15BONO3COLUMBIA-BONNEVILLE DAM08-13-2018INFLOW (KAF)250622979384
16BRNI1SNAKE-BROWNLEE DAM08-13-2018INFLOW (KAF)2981330490
17BUDW1BUMPING-BUMPING LAKE DAM08-13-2018INFLOW (KAF)2824114
18BULO3BULLY CREEK-BULLY CREEK DAM08-13-2018INFLOW (KAF)10197
19CABI1CLARK FORK-CABINET GORGE DAM08-13-2018INFLOW (KAF)2620312384
20CFMM8FLATHEAD-AT COLUMBIA FALLS08-13-2018DISCHARGE (KAF)932113782
21CHDW1CHELAN-LAKE CHELAN DAM08-13-2018INFLOW (KAF)14818480
22CHEI1FALL RIVER-NEAR CHESTER08-13-2018DISCHARGE (KAF)10493112
23CHJW1COLUMBIA-CHIEF JOSEPH DAM08-13-2018INFLOW (KAF)164101921685
24CIBW1COLUMBIA-AT INTL BOUNDARY08-13-2018DISCHARGE (KAF)16113MM
25CLFW1NACHES-NEAR CLIFFDEL08-13-2018DISCHARGE (KAF)718089
26CLUW1CLE ELUM-CLE ELUM LAKE08-13-2018INFLOW (KAF)697790
27COEI1COEUR D ALENE-COEUR D ALENE LAKE08-13-2018INFLOW (KAF)22230274
28CSDI1NF PAYETTE-CASCADE DAM08-13-2018INFLOW (KAF)8275110
29DEDI1DEADWOOD-NEAR LOWMAN08-13-2018INFLOW (KAF)171892
30DLGM8CLARK FORK-AT DEER LODGE08-13-2018DISCHARGE (KAF)8754162
31DRMM8CLARK FORK-NR DRUMMOND08-13-2018DISCHARGE (KAF)185MM
32DWRI1NF CLEARWATER-DWORSHAK DAM08-13-2018INFLOW (KAF)32137885
33EASW1YAKIMA-AT EASTON08-13-2018DISCHARGE (KAF)276442
34EMMI1PAYETTE-NEAR EMMETT08-13-2018DISCHARGE (KAF)28537975
35FCFM8NF FLATHEAD-NEAR COLUMBIA FALLS08-13-2018DISCHARGE (KAF)18025371
36GCDW1COLUMBIA-GRAND COULEE DAM08-13-2018INFLOW (KAF)168601832492
37GIBO3UMATILLA-NEAR GIBBON08-13-2018DISCHARGE (KAF)121675
38HALI1BIG WOOD-AT HAILEY08-13-2018DISCHARGE (KAF)374877
39HEII1SNAKE-NEAR HEISE08-13-2018DISCHARGE (KAF)15481187130
40HHWM8SF FLATHEAD-HUNGRY HORSE DAM08-13-2018INFLOW (KAF)17523375
41HODO3HOOD-NEAR TUCKER BRIDGE08-13-2018DISCHARGE (KAF)126124102
42HOPI1PEND OREILLE-PEND OREILLE LAKE NR HOPE08-13-2018LAKE ELEVATION (FT)MMM
43HOTI1BRUNEAU-NEAR HOT SPRINGS08-13-2018DISCHARGE (KAF)172278
44HWRI1BIG LOST-AT HOWELL RANCH NEAR CHILLY08-13-2018DISCHARGE (KAF)253084
45IHDW1SNAKE-ICE HARBOR DAM08-13-2018INFLOW (KAF)5681604594
46IPDI1HENRYS FORK-ISLAND PARK DAM08-13-2018INFLOW (KAF)151134113
47JDAO3COLUMBIA-JOHN DAY DAM08-13-2018INFLOW (KAF)239932707189
48JKSW4SNAKE-NEAR JACKSON08-13-2018DISCHARGE (KAF)684589116
49JLKW4SNAKE-JACKSON LAKE AT DAM08-13-2018INFLOW (KAF)148128116
50KADW1KACHESS-KACHESS DAM08-13-2018INFLOW (KAF)3024123
51KEDW1YAKIMA-KEECHELUS LAKE08-13-2018INFLOW (KAF)4535129
52KERM8FLATHEAD-KERR DAM08-13-2018INFLOW (KAF)1089136780
53KIOW1YAKIMA-AT KIONA08-13-2018DISCHARGE (KAF)41851581
54LAUW1KETTLE-AT LAURIER08-13-2018DISCHARGE (KAF)9013169
55LEOI1KOOTENAI-AT LEONIA08-13-2018DISCHARGE (KAF)1805195193
56LGDW1SNAKE-LOWER GRANITE DAM08-13-2018INFLOW (KAF)5664608993
57LGSW1SNAKE-LITTLE GOOSE DAM08-13-2018INFLOW (KAF)5664612193
58LLKW1SPOKANE-AT LONGLAKE08-13-2018INFLOW (KAF)61269288
59LMNW1SNAKE-LOWER MONUMENTAL DAM08-13-2018INFLOW (KAF)5678612793
60LUCI1BOISE-LUCKY PEAK DAM08-13-2018INFLOW (KAF)303MM
61LWRI1LITTLE WOOD-LITTLE WOOD DAM08-13-2018INFLOW (KAF)1715115
62LYDM8KOOTENAI-LIBBY DAM08-13-2018INFLOW (KAF)980135872
63MACI1BIG LOST-MACKAY RESERVOIR NEAR MACKAY08-13-2018INFLOW (KAF)3817226
64MAGI1BIG WOOD-MAGIC DAM08-13-2018INFLOW (KAF)162857
65MCDW1COLUMBIA-MCNARY DAM08-13-2018INFLOW (KAF)234682657788
66MILI1SNAKE-AT MILNER08-13-2018DISCHARGE (KAF)5522425
67MODO3DESCHUTES-AT MOODY NR BIGGS08-13-2018DISCHARGE (KAF)1029114890
68MONO3NF JOHN DAY-AT MONUMENT08-13-2018DISCHARGE (KAF)284168
69MYKO3MCKAY CREEK-NEAR PILOT ROCK08-13-2018DISCHARGE (KAF)33105
70NACW1NACHES-NEAR NACHES08-13-2018DISCHARGE (KAF)14793158
71NOXM8CLARK FORK-NOXON RAPIDS DAM08-13-2018INFLOW (KAF)2381296280
72ORFI1CLEARWATER-AT OROFINO08-13-2018DISCHARGE (KAF)42550384
73OWYO3OWYHEE-OWYHEE DAM08-13-2018INFLOW (KAF)475585
74PARI1BOISE-NEAR PARMA08-13-2018DISCHARGE (KAF)20822493
75PARW1YAKIMA-NEAR PARKER08-13-2018DISCHARGE (KAF)16222473
76PATW1METHOW-NEAR PATEROS08-13-2018DISCHARGE (KAF)9510888
77PDTO3UMATILLA-AT PENDLETON08-13-2018DISCHARGE (KAF)162367
78PESW1WENATCHEE-AT PESHASTIN08-13-2018DISCHARGE (KAF)20725183
79PIHI1PORTNEUF-AT POCATELLO08-13-2018DISCHARGE (KAF)4340109
80PITW1KLICKITAT-NEAR PITT08-13-2018DISCHARGE (KAF)18719496
81PLDI1SF SNAKE-PALISADES DAM08-13-2018INFLOW (KAF)11121012110
82PRTI1PRIEST-NEAR PRIEST RIVER08-13-2018DISCHARGE (KAF)7618441
83PRWW1COLUMBIA-PRIEST RAPIDS DAM08-13-2018INFLOW (KAF)173501949189
84RCCM8ROCK CREEK-NEAR CLINTON08-13-2018DISCHARGE (KAF)7060117
85REXI1HENRYS FORK-AT REXBURG08-13-2018DISCHARGE (KAF)569396144
86RIDI1WILLOW CREEK-RIRIE DAM08-13-2018INFLOW (KAF)5678
87RILW1TIETON-RIMROCK LAKE NEAR RIMROCK08-13-2018INFLOW (KAF)6461104
88RRHW1COLUMBIA-ROCKY REACH DAM08-13-2018INFLOW (KAF)171411993086
89SATI1ST MARIES-NEAR SANTA08-13-2018DISCHARGE (KAF)161983
90SERO3JOHN DAY-AT SERVICE CK08-13-2018DISCHARGE (KAF)497863
91SHYI1SNAKE-NEAR SHELLEY08-13-2018DISCHARGE (KAF)1525852179
92SIFI1SNAKE-AB EAGLE ROCK NR IDAHO FALLS08-13-2018DISCHARGE (KAF)15731006156
93SJMI1ST JOE-AT ST MARIES08-13-2018STAGE (FT)MMM
94SNAI1SNAKE-AT BLACKFOOT08-13-2018DISCHARGE (KAF)1240603206
95SPDI1CLEARWATER-AT SPALDING08-13-2018DISCHARGE (KAF)12891154112
96SPOW1SPOKANE-AT SPOKANE08-13-2018DISCHARGE (KAF)449MM
97SRGM8CLARK FORK-AT ST REGIS08-13-2018DISCHARGE (KAF)789785100
98STRM8ST. REGIS-NEAR ST. REGIS08-13-2018DISCHARGE (KAF)253183
99SWAI1SNAKE-BELOW SWAN FALLS08-13-2018DISCHARGE (KAF)1915222986
100TCHW1WALLA WALLA-NEAR TOUCHET08-13-2018DISCHARGE (KAF)152756
101TDAO3COLUMBIA-THE DALLES DAM08-13-2018INFLOW (KAF)245842854286
102TEAI1TETON-NEAR ST. ANTHONY08-13-2018DISCHARGE (KAF)147143103
103TNAW1TEANAWAY-BELOW FORKS08-13-2018DISCHARGE (KAF)101569
104TONW1OKANOGAN-NEAR TONASKET08-13-2018DISCHARGE (KAF)25828491
105TRYO3GRANDE RONDE-TROY08-13-2018DISCHARGE (KAF)13521065
106UMAO3UMATILLA-NEAR UMATILLA08-13-2018DISCHARGE (KAF)5122231
107UMTW1YAKIMA-AT UMTANUM08-13-2018DISCHARGE (KAF)424408104
108UNDW1WHITE SALMON-NEAR UNDERWOOD08-13-2018DISCHARGE (KAF)167163102
109VALO3MALHEUR-NEAR VALE08-13-2018DISCHARGE (KAF)3327122
110WANW1COLUMBIA-WANAPUM DAM08-13-2018INFLOW (KAF)173501918690
111WEII1SNAKE-AT WEISER08-13-2018DISCHARGE (KAF)2827323887
112WELW1COLUMBIA-WELLS DAM08-13-2018INFLOW (KAF)167651948486
113WGCM8MF FLATHEAD-NEAR WEST GLACIER08-13-2018DISCHARGE (KAF)15420974
114WHBI1SALMON-AT WHITEBIRD08-13-2018DISCHARGE (KAF)1131113799
115WRMO3MALHEUR-WARM SPRINGS DAM08-13-2018INFLOW (KAF)447634
116WSRI1WEISER-NEAR WEISER08-13-2018DISCHARGE (KAF)445089